time,p_u,t_u,rh_u,rh_u_cor,qh_u,wspd_u,wdir_u,wspd_x_u,wspd_y_u,dsr,dsr_cor,usr,usr_cor,albedo,dlr,ulr,cc,t_surf,dlhf_u,dshf_u,z_boom_u,z_stake,z_pt,z_pt_cor,precip_u,precip_u_cor,precip_u_rate,t_i_1,t_i_2,t_i_3,t_i_4,t_i_5,t_i_6,t_i_7,t_i_8,tilt_x,tilt_y,rot,gps_lat,gps_lon,gps_alt,gps_time,gps_geoid,gps_hdop,batt_v,fan_dc_u,t_log,t_rad,p_i,t_i,rh_i,rh_i_cor,wspd_i,wdir_i,wspd_x_i,wspd_y_i
2008-03-29,930.6448,-15.2836,40.0644,46.4584,0.5016,4.7154,149.5554,2.3672,-4.0275,0.3091,,0.2592,0.2575,,248.6223,249.1807,0.9689,-15.678,-22.5829,6.3396,2.6479,0.3556,9.7507,10.5102,,,,-14.6691,-13.9418,-13.2116,-12.5001,-11.7904,-10.9561,-10.2487,-8.3995,13.6536,,,74.625082,-21.375929,665.26,173636.74509803922,48.6,1.04,,138.29,-18.2325,-15.6167,,,,,,,,
2008-03-30,938.8202,-15.7021,38.6382,44.938,0.4652,4.2415,154.2818,1.791,-3.7185,0.9747,,0.7507,0.7479,,250.6046,251.2023,0.9799,-15.1957,-21.4786,0.8869,2.6703,0.3554,9.7229,10.4061,,,,-14.7175,-13.9657,-13.2219,-12.5111,-11.8007,-10.9701,-10.2618,-8.408,13.6536,,,74.625077,-21.376024,658.39,114144.2,48.6,1.23,,137.22,-16.6269,-15.138,,,,,,,,
2008-03-31,942.3205,-19.4303,43.587,52.5668,0.3819,4.0763,150.445,1.986,-3.5025,1.0227,,0.779,0.7782,,237.952,238.5248,0.9848,-18.5384,-12.7515,-0.6617,2.6708,0.3571,9.9931,10.6435,,,,-14.7442,-13.974,-13.2203,-12.5067,-11.8017,-10.9724,-10.268,-8.4141,13.6536,,,74.625072,-21.37601,658.63,119582.90416666666,48.6,1.31,,135.98,-19.9387,-18.4854,,,,,,,,
2008-04-01,948.236,-20.9808,43.9481,53.8258,0.3342,4.4148,150.8168,2.1256,-3.8059,1.0624,,0.8078,0.8059,,230.1547,230.7471,0.986,-20.6042,-12.7263,-3.2637,2.6702,0.3633,10.4643,11.0595,,,,-14.7639,-13.9814,-13.2198,-12.5036,-11.8021,-10.9771,-10.2743,-8.4247,13.6536,,,74.625081,-21.375989,661.25,119292.38333333333,48.6,1.18,,139.93,-21.9752,-20.5569,,,,,,,,
2008-04-02,950.6395,-20.8737,43.3922,53.0565,0.3331,4.1684,150.2849,2.046,-3.5849,1.0876,,0.8227,0.8207,,231.1807,231.7816,0.9863,-20.3294,-12.3209,-4.1763,2.6703,0.3696,10.428,11.0007,,,,-14.7803,-13.9908,-13.2166,-12.4989,-11.8009,-10.9788,-10.2822,-8.4303,13.6536,,,74.625067,-21.376007,659.87,114375.67499999999,48.6,1.24,,141.33,-22.0092,-20.2768,,,,,,,,
2008-04-03,949.201,-17.4822,35.5126,42.0051,0.365,3.9945,151.8137,1.854,-3.4597,1.1278,,0.8496,0.8473,,243.8604,244.4817,0.9799,-16.9444,-21.0527,-5.4145,2.672,0.3742,10.3991,10.9853,,,,-14.7968,-14.0006,-13.2144,-12.4941,-11.8013,-10.9829,-10.2876,-8.4417,13.6536,,,74.625069,-21.376017,659.27,119584.00833333333,48.6,1.18,,139.98,-19.0541,-16.8801,,,,,,,,
2008-04-04,951.5226,-15.2072,33.6076,38.9318,0.4144,3.238,152.3156,1.4607,-2.7841,1.1605,,0.8753,0.8729,,252.7263,253.3293,0.9758,-14.6505,-19.1423,-0.5501,2.6736,0.3724,10.3977,10.9623,,,,-14.8209,-14.0068,-13.2159,-12.4942,-11.8005,-10.9858,-10.2949,-8.4527,13.6536,,,74.625073,-21.376026,658.99,119646.50416666665,48.6,1.23,,139.62,-16.7909,-14.5785,,,,,,,,
2008-04-05,955.7482,-15.2116,41.2461,47.76,0.5072,3.8348,153.05,1.706,-3.3555,1.2131,,0.9147,0.9135,,251.9344,252.5413,0.9781,-14.8436,-21.1334,-2.7344,2.6584,0.3768,10.4174,10.9425,,,,-16.0362,-14.2873,-13.4473,-12.7092,-12.0163,-11.2015,-10.501,-8.5898,13.6536,,,74.625071,-21.376016,659.41,119814.375,48.6,1.13,,142.75,-16.5975,-14.7834,,,,,,,,
2008-04-06,944.5694,-9.2121,42.8848,46.1489,0.9128,4.115,157.6718,1.5066,-3.6683,0.9937,,0.7849,0.7835,,275.0429,275.4391,0.9754,-9.2674,-35.3589,0.8792,2.6727,0.3773,10.2699,10.8994,,,,-18.7725,-15.063,-14.1091,-13.3343,-12.6205,-11.8016,-11.0734,-8.9735,13.6536,,,74.625078,-21.376035,660.67,119293.74166666667,48.6,1.13,,146.36,-11.3188,-9.2124,,,,,,,,
2008-04-07,939.032,-8.1739,57.0766,61.1737,1.2929,5.9686,180.7957,-0.0742,-5.3402,0.9453,,0.7809,0.7795,,279.5857,279.8516,0.9778,-8.1386,-33.5754,1.3788,2.6597,0.3811,10.1771,10.8583,,,,-15.8554,-15.065,-14.1174,-13.337,-12.6209,-11.8023,-11.0759,-8.9807,13.6536,,,74.625078,-21.376027,661.77,119914.1875,48.6,1.18,,148.68,-8.2641,-8.1109,,,,,,,,
2008-04-08,942.6956,-12.1507,48.5006,54.562,0.7733,6.0293,194.5242,-1.4774,-5.7028,1.4241,,1.1158,1.1139,,263.0294,263.6863,0.9802,-12.0168,-34.5921,-0.8624,2.6649,0.3859,10.192,10.839,,,,-15.2844,-15.0434,-14.123,-13.3402,-12.6209,-11.7953,-11.0777,-8.9895,13.6536,,,74.625082,-21.376021,661.36,114815.625,48.6,1.09,,154.86,-11.7794,-11.9822,,,,,,,,
2008-04-09,944.7833,-10.2512,63.7639,70.3648,1.1832,7.3721,185.918,-0.7533,-7.2668,1.2096,,0.977,0.976,,270.7627,270.9984,0.9895,-10.2288,-31.9152,0.0617,2.6654,0.3888,10.2097,10.8372,,,,-15.5104,-14.9967,-14.1306,-13.339,-12.6172,-11.7966,-11.079,-8.9967,13.6536,,,74.625076,-21.376025,661.51,114499.75,48.6,1.14,,153.24,-10.0466,-10.2112,,,,,,,,
2008-04-10,948.8509,-11.6758,58.132,65.0646,0.9582,3.0517,165.9755,0.681,-2.7265,1.519,,1.2051,1.2038,,268.802,269.3317,0.9793,-10.6645,-19.4509,-8.5791,2.6516,0.3942,10.2325,10.822,,,,-15.0727,-14.9329,-14.1304,-13.3428,-12.6152,-11.7955,-11.0791,-9.0079,13.6536,,,74.625075,-21.376025,659.79,119583.125,48.6,1.11,,148.81,-10.5545,-10.6141,,,,,,,,
2008-04-11,944.8934,-14.8435,38.6189,44.4913,0.4978,2.7484,155.3418,1.0579,-2.3044,1.5465,,1.2097,1.2081,,260.2658,260.8833,0.9739,-12.8736,-14.6479,-0.6886,2.6542,0.3995,10.1726,10.7991,,,,-15.597,-14.8658,-14.1292,-13.341,-12.6143,-11.7967,-11.0817,-9.0174,13.6536,,,74.625082,-21.376028,661.0,114586.50416666667,48.6,1.1,,149.25,-13.9935,-12.7995,,,,,,,,
2008-04-12,944.4854,-19.2796,44.9383,54.141,0.3971,2.3698,153.6761,1.0484,-2.1191,1.5915,,1.2282,1.2261,,243.7222,244.3086,0.9756,-17.1041,-7.8794,-3.809,2.6544,0.4037,10.1608,10.791,,,,-16.8321,-14.7996,-14.1138,-13.3407,-12.6136,-11.7923,-11.0793,-9.0234,13.6536,,,74.625074,-21.376023,659.22,114209.38333333335,48.6,1.23,,150.17,-18.1331,-17.0333,,,,,,,,
2008-04-13,938.7005,-20.0334,47.7882,57.9332,0.4001,3.1332,152.5443,1.3993,-2.6931,1.6539,,1.2727,1.2709,,240.8733,241.4667,0.9805,-17.8294,-8.2628,-2.165,2.6535,0.4059,10.094,10.7782,,,,-18.1578,-14.7475,-14.0975,-13.3435,-12.6105,-11.7929,-11.0797,-9.0306,13.6536,,,74.625072,-21.376025,657.64,114791.61666666667,48.6,1.21,,150.95,-18.8392,-17.7657,,,,,,,,
2008-04-14,931.1521,-16.2351,35.8831,41.8616,0.4199,3.4201,153.6379,1.4696,-2.9654,1.6719,,1.2849,1.283,,251.9823,252.6169,0.9798,-14.9031,-21.5955,-8.0115,2.6535,0.4087,10.0185,10.7732,,,,-18.8901,-14.7182,-14.0796,-13.3403,-12.6107,-11.7922,-11.0848,-9.0413,13.6536,,,74.625079,-21.376029,659.37,119061.40833333334,48.6,1.03,,150.03,-16.1191,-14.8345,,,,,,,,
2008-04-15,925.7707,-16.4475,35.766,41.8467,0.4122,5.8773,155.0259,2.3309,-5.0045,1.6154,,1.2664,1.2652,,246.1312,246.8067,0.9818,-16.3266,-31.5747,-3.7844,2.6555,0.4119,9.9615,10.7664,,,,-18.9616,-14.7152,-14.0619,-13.3369,-12.6134,-11.7969,-11.0858,-9.0499,13.6536,,,74.625085,-21.37603,661.42,114813.59583333334,48.6,1.15,,153.46,-16.8224,-16.2808,,,,,,,,
2008-04-16,924.9779,-15.9566,31.6384,36.8949,0.3782,3.1175,155.0481,1.1657,-2.5052,1.765,,1.3632,1.3614,,254.4184,255.0543,0.974,-14.2879,-19.3113,-3.8373,2.6643,0.416,9.9476,10.76,,,,-18.8725,-14.7282,-14.0445,-13.3331,-12.6131,-11.7968,-11.0884,-9.0578,13.6536,,,74.625081,-21.376033,659.55,114815.88750000001,48.6,1.07,,150.03,-15.0271,-14.219,,,,,,,,
2008-04-17,929.1302,-14.0743,37.0286,42.4187,0.5135,1.82,161.7033,0.2854,-0.8633,1.4812,,1.1586,1.1585,,261.3803,261.7714,0.9795,-12.5361,-12.9683,-4.7999,2.6621,0.4169,9.9878,10.7613,,,,-18.7913,-14.742,-14.032,-13.3282,-12.6114,-11.7952,-11.0902,-9.066,13.6536,,,74.625073,-21.376029,659.0,119413.32500000001,48.6,1.15,,145.93,-13.375,-12.474,,,,,,,,
2008-04-18,930.4269,-13.6463,52.6884,59.9525,0.7627,1.6064,164.8195,0.2051,-0.7558,1.6403,,1.2843,1.284,,267.9517,268.2676,0.9847,-10.9887,-9.637,-7.059,2.6612,0.4172,9.9971,10.7586,,,,-18.3254,-14.7555,-14.0234,-13.3223,-12.6114,-11.7955,-11.0943,-9.0732,13.6536,,,74.625077,-21.376024,661.43,119646.0,48.6,1.24,,147.01,-11.0417,-10.9388,,,,,,,,
2008-04-19,932.4204,-7.2436,51.4968,55.0155,1.2386,1.8822,153.5296,0.6236,-1.2524,1.7786,,1.3796,1.3784,,292.0159,292.5434,0.9692,-5.2728,-23.5735,-7.4503,2.6625,0.4203,10.0128,10.7556,,,,-17.3392,-14.7616,-14.0167,-13.316,-12.6113,-11.7986,-11.0964,-9.0834,13.6536,,,74.625075,-21.376013,661.68,114441.02916666666,48.6,1.15,,141.69,-5.8208,-5.1455,,,,,,,,
2008-04-20,935.4353,-10.8441,57.7479,64.0989,1.0327,1.3334,158.2788,0.3511,-0.8814,1.8721,,1.4354,1.4349,,279.233,279.758,0.9719,-8.2478,-8.9461,-5.4693,2.6615,0.4227,10.0326,10.7473,,,,-16.4799,-14.7602,-14.0122,-13.3086,-12.6069,-11.7959,-11.0977,-9.0877,13.6536,,,74.625072,-21.376013,661.36,114499.07083333333,48.6,1.14,,143.84,-8.9676,-8.1718,,,,,,,,
2008-04-21,934.1153,-10.534,54.7237,60.5716,1.0037,1.8455,155.8568,0.6762,-1.5087,1.8113,,1.389,1.3885,,284.5069,285.0383,0.9797,-7.2682,-11.7791,-2.2375,2.6614,0.4251,10.0091,10.7362,,,,-16.2447,-14.7376,-14.007,-13.3023,-12.6059,-11.7948,-11.0996,-9.0961,13.6536,,,74.625073,-21.376007,661.76,115025.52916666666,48.6,1.08,,144.1,-8.3659,-6.956,,,,,,,,
2008-04-22,935.089,-11.0282,58.1325,64.5847,1.0279,1.0537,170.1227,0.1191,-0.6842,1.7683,,1.3556,1.3551,,280.718,281.1745,0.9722,-7.8749,-4.124,-1.3611,2.6583,0.4273,10.0124,10.7304,,,,-16.0604,-14.7027,-14.0022,-13.2976,-12.6028,-11.7963,-11.1008,-9.1032,13.6536,,,74.625075,-21.376024,661.67,119501.31666666665,48.6,1.15,,144.16,-9.0121,-7.8034,,,,,,,,
2008-04-23,939.9673,-13.0538,51.8091,58.532,0.7837,2.9655,175.1603,0.2044,-2.4138,2.0603,,1.5689,1.5687,,262.2187,262.8107,0.9765,-12.3023,-27.3759,-16.2134,2.6557,0.4298,10.0567,10.7291,,,,-15.9951,-14.6645,-13.9938,-13.2975,-12.6013,-11.7963,-11.1024,-9.1118,13.6536,,,74.625078,-21.376015,660.04,119374.02499999998,48.6,1.15,,149.78,-12.2496,-12.2538,,,,,,,,
2008-04-24,944.2637,-15.9735,53.3837,62.3337,0.6217,1.6954,137.0746,0.6327,-0.6802,1.6142,,1.2853,1.2846,,257.8131,258.0338,0.9887,-13.4995,-8.6983,-6.6529,2.6556,0.4309,10.0959,10.7282,,,,-16.1597,-14.6254,-13.9847,-13.2906,-12.5967,-11.7984,-11.1052,-9.1188,13.6536,,,74.625078,-21.376013,660.69,119355.47083333334,48.6,1.16,,146.69,-14.1406,-13.4615,,,,,,,,
2008-04-25,942.5616,-16.1891,63.1616,73.8976,0.7241,4.2384,176.1868,0.2729,-4.0949,1.6034,,1.3277,1.3277,,249.8558,249.9922,0.993,-15.4854,-14.531,-11.5069,2.6352,0.4174,10.0724,10.7207,,,,-16.1233,-14.5867,-13.969,-13.286,-12.5948,-11.7975,-11.1083,-9.1245,13.6536,,,74.625074,-21.376021,659.07,119500.38750000001,48.6,1.17,,150.5,-15.2848,-15.4628,,,,,,,,
2008-04-26,935.6551,-14.146,40.7509,46.5936,0.5631,3.636,166.3335,0.7244,-2.9791,2.1925,,1.729,1.729,,262.796,263.3782,0.9878,-12.2148,-27.2149,-13.126,2.6299,0.4154,9.9995,10.7122,,,,-16.0609,-14.5566,-13.955,-13.2812,-12.5937,-11.799,-11.1104,-9.1341,13.6536,,,74.625078,-21.376011,660.93,119084.82916666668,48.6,1.17,,151.91,-12.3722,-12.1631,,,,,,,,
2008-04-27,933.7377,-8.8944,40.3383,43.8165,0.8506,5.6674,182.5733,-0.2399,-5.3373,2.2809,,1.7979,1.7979,,277.8081,278.3969,0.9804,-8.4946,-62.0157,-10.1248,2.6303,0.416,9.9797,10.7103,,,,-16.147,-14.5281,-13.9363,-13.2753,-12.5918,-11.7973,-11.1133,-9.1398,13.6536,,,74.625068,-21.376019,659.5,119645.09166666666,48.6,1.25,,150.61,-9.1678,-8.4424,,,,,,,,
2008-04-28,943.6694,-6.8056,46.7087,49.8457,1.1357,4.3133,185.7021,-0.3887,-3.8927,1.8683,,1.5103,1.5103,,290.4336,290.6896,0.9921,-5.6055,-51.9972,-11.3362,2.6254,0.4191,10.0832,10.7211,,,,-15.2341,-14.4968,-13.9197,-13.2692,-12.5915,-11.8,-11.1167,-9.1481,13.6536,,,74.62507,-21.376018,660.25,114584.80833333333,48.6,1.08,,146.41,-5.7109,-5.5683,,,,,,,,
2008-04-29,944.3085,-9.0708,46.8274,51.0545,0.9563,2.8432,154.2522,1.2028,-2.4938,2.2847,,1.7869,1.7869,,288.4796,289.106,0.9848,-6.7036,-25.4824,-6.7397,2.629,0.4234,10.0765,10.7084,,,,-14.2558,-14.4692,-13.9052,-13.2582,-12.5869,-11.7976,-11.1189,-9.1541,13.6536,,,74.625065,-21.376019,658.66,119417.05833333335,48.6,1.48,,144.91,-6.9956,-6.0293,,,,,,,,
2008-04-30,946.0809,-7.6477,40.8327,43.8914,0.931,4.141,152.303,1.8817,-3.5845,1.9975,,1.5863,1.5863,,285.286,285.891,0.9843,-6.7167,-52.7523,-9.6599,2.6294,0.4264,10.0883,10.7037,,,,-14.2289,-14.4256,-13.8871,-13.2519,-12.5831,-11.7973,-11.1184,-9.1615,13.6536,,,74.625076,-21.376017,661.52,114583.72083333334,48.6,1.07,,145.57,-8.2166,-6.6527,,,,,,,,
2008-05-01,943.6354,-6.7037,46.5462,49.5992,1.1427,2.2428,159.3198,0.6758,-1.7903,2.1996,,1.7194,1.7194,,297.2221,297.7187,0.9877,-4.677,-28.218,-6.4941,2.6271,0.4288,10.0618,10.7,,,,-14.1418,-14.3709,-13.8681,-13.2439,-12.5811,-11.7992,-11.1228,-9.1675,13.6536,,,74.625073,-21.376019,660.35,119145.22916666667,48.6,1.1,,144.5,-5.002,-4.0099,,,,,,,,
2008-05-02,954.7413,-7.4515,50.5312,54.259,1.1562,5.5227,184.7164,-0.4423,-5.361,2.371,,1.878,1.878,,285.4152,285.9234,0.9903,-6.6916,-55.8686,-14.799,2.599,0.4133,10.1656,10.7001,,,,-13.593,-14.3148,-13.8486,-13.2327,-12.5778,-11.7974,-11.1219,-9.1739,13.6536,,,74.625071,-21.376016,659.65,119065.28749999999,48.6,1.1,,149.4,-6.6064,-6.6539,,,,,,,,
2008-05-03,954.2255,-6.0646,41.0713,43.4404,1.0516,3.4788,156.2541,1.3423,-3.0512,2.4826,,1.9463,1.9463,,297.2416,297.9001,0.9848,-4.662,-52.6381,-11.9966,2.5845,0.4009,10.157,10.6963,,,,-13.1948,-14.2586,-13.8251,-13.2242,-12.5758,-11.7985,-11.1259,-9.182,13.6536,,,74.625079,-21.376039,662.51,115026.02083333333,48.6,1.09,,145.46,-4.9574,-3.9675,,,,,,,,
2008-05-04,945.2819,-4.5305,42.7933,44.5962,1.243,2.7282,150.478,1.0255,-1.8109,2.2583,,1.7806,1.7806,,303.2305,303.6893,0.9863,-3.3736,-48.0297,-8.7953,2.5868,0.4039,10.0607,10.6835,,,,-12.9555,-14.1968,-13.7999,-13.2159,-12.5715,-11.7985,-11.1268,-9.1904,13.6536,,,74.625072,-21.376023,661.68,119501.85416666667,48.6,1.1,,143.12,-3.5993,-2.6525,,,,,,,,
2008-05-05,943.3514,-4.7156,42.023,43.9269,1.2006,2.5287,155.7308,0.9364,-2.077,2.5398,,1.9735,1.9735,,305.0886,305.7044,0.9822,-3.2276,-47.9576,-12.8784,2.5898,0.4074,10.0358,10.6766,,,,-12.364,-14.1282,-13.771,-13.2025,-12.5668,-11.7975,-11.1303,-9.1962,13.6536,,,74.625069,-21.376012,660.76,114295.79999999999,48.6,1.05,,142.49,-2.9308,-2.2071,,,,,,,,
2008-05-06,936.1569,-7.2036,53.937,57.7533,1.2845,1.6094,152.2345,0.5597,-1.0631,2.4298,,1.9128,1.9128,,303.9338,304.4308,0.988,-3.9245,-14.9078,-2.2091,2.5895,0.4103,9.958,10.666,,,,-12.0118,-14.0583,-13.7406,-13.1914,-12.5605,-11.7964,-11.1323,-9.2018,13.6536,,,74.625068,-21.376024,661.42,114522.58333333333,48.6,1.16,,141.92,-3.7909,-2.5447,,,,,,,,
2008-05-07,938.4767,-11.6487,70.0091,78.3773,1.1672,5.7183,178.7618,0.1178,-5.4485,1.7391,,1.4503,1.4503,,266.5996,266.79,0.9872,-11.2547,-18.6542,-8.9487,2.5739,0.409,9.9654,10.6517,,,,-12.0901,-13.9826,-13.7092,-13.179,-12.5552,-11.795,-11.1329,-9.2074,13.6536,,,74.625075,-21.376029,660.92,119793.37083333332,48.6,1.12,,150.47,-11.3355,-11.2316,,,,,,,,
2008-05-08,945.1286,-11.4588,66.6921,74.4834,1.1233,6.5404,180.9266,-0.1034,-6.3952,1.8883,,1.5756,1.5756,,267.7875,267.9603,0.9946,-10.9685,-26.2422,-9.7214,2.5821,0.4029,10.0261,10.6503,,,,-12.4224,-13.9064,-13.6736,-13.1631,-12.5496,-11.7952,-11.1354,-9.2172,13.6536,,,74.625068,-21.376028,659.78,119413.87083333332,48.6,1.09,,154.92,-10.736,-10.9535,,,,,,,,
2008-05-09,941.4422,-7.9846,47.4992,51.1801,1.0635,2.5482,170.5321,0.3371,-2.0216,2.5943,,2.0703,2.0703,,291.6749,292.2742,0.9876,-5.4933,-36.208,-15.0029,2.585,0.4119,9.9903,10.649,,,,-12.5429,-13.837,-13.6413,-13.1498,-12.5459,-11.7938,-11.1384,-9.2221,13.6536,,,74.625067,-21.376034,659.91,114376.94166666667,48.6,1.22,,146.98,-5.6915,-5.251,,,,,,,,
2008-05-10,943.2158,-7.806,45.0494,48.5024,1.0176,2.5288,160.5142,0.7392,-2.0891,2.8352,,2.2174,2.2174,,297.5147,298.2147,0.989,-4.9103,-32.9223,-13.349,2.5864,0.4151,10.0017,10.6439,,,,-12.5884,-13.778,-13.6015,-13.132,-12.5395,-11.793,-11.1409,-9.2287,13.6536,,,74.625072,-21.376021,660.09,114563.42499999999,48.6,1.17,,142.71,-4.7793,-3.9415,,,,,,,,
2008-05-11,942.1398,-5.9409,38.7292,40.9057,1.0143,2.7476,152.9279,1.1096,-2.1709,2.8814,,2.2473,2.2473,,306.2607,306.9567,0.9907,-3.7444,-43.696,-10.0548,2.5873,0.4183,9.9911,10.6432,,,,-12.571,-13.7271,-13.5609,-13.1149,-12.5323,-11.7914,-11.1418,-9.2354,13.6536,,,74.625068,-21.376019,659.18,114439.5375,48.6,1.16,,142.35,-3.3799,-1.9915,,,,,,,,
2008-05-12,944.8906,-8.6563,49.6047,53.8865,1.0444,1.9206,154.7428,0.7765,-1.6459,2.8959,,2.2287,2.2287,,300.0829,300.7613,0.9879,-5.0777,-17.5015,-6.2155,2.5877,0.4206,10.0073,10.6338,,,,-12.4563,-13.6776,-13.5231,-13.0948,-12.5247,-11.7899,-11.1433,-9.2405,13.6536,,,74.62507,-21.376008,659.22,114355.0375,48.6,1.18,,141.54,-5.0483,-3.4269,,,,,,,,
2008-05-13,942.0107,-4.3777,37.6766,39.1298,1.1178,2.9547,153.3269,1.2057,-2.4,2.8988,,2.2427,2.2427,,306.618,307.2919,0.9868,-3.0064,-57.9434,-10.9079,2.5873,0.4186,9.9775,10.6309,,,,-12.5179,-13.635,-13.4868,-13.0771,-12.5166,-11.7891,-11.1453,-9.248,13.6536,,,74.625069,-21.376025,660.48,114731.12083333333,48.6,1.23,,141.54,-3.1272,-1.8751,,,,,,,,
2008-05-14,939.8426,-2.152,41.3505,42.1551,1.4378,3.3121,161.3464,0.9493,-2.812,3.0485,,2.3789,2.3789,,318.7679,319.4482,0.9891,-1.5429,-63.3937,-4.1237,2.5858,0.3497,9.9569,10.6304,,,,-12.044,-13.5888,-13.4528,-13.0559,-12.5098,-11.786,-11.1463,-9.2545,13.6536,,,74.625073,-21.376013,662.23,114085.38333333333,48.6,1.04,,141.99,-0.354,0.7935,,,,,,,,
2008-05-15,939.7553,-2.2615,46.7299,47.7129,1.6119,2.9129,154.7281,1.1686,-2.4753,3.0635,,2.3775,2.3775,,320.3715,321.0659,0.9873,-1.6619,-49.0087,-6.2678,2.5869,0.3495,9.9509,10.6253,,,,-11.3011,-13.5432,-13.4149,-13.0349,-12.5004,-11.7843,-11.1481,-9.2596,13.6536,,,74.625068,-21.37601,660.72,119062.39166666666,48.6,1.06,,141.23,0.5873,1.1017,,,,,,,,
2008-05-16,940.9646,-3.8584,49.8509,51.6471,1.5254,2.2203,158.7583,0.7214,-1.8558,3.0025,,2.3093,2.3093,,320.958,321.5836,0.993,-2.2009,-30.1865,-5.6462,2.5889,0.3488,9.9557,10.6188,,,,-10.7178,-13.4877,-13.3816,-13.0142,-12.4894,-11.7809,-11.149,-9.2671,13.6536,,,74.625069,-21.376012,661.89,114315.625,48.6,1.04,,141.11,0.0054,1.1429,,,,,,,,
2008-05-17,948.9992,-9.6243,74.3944,81.5323,1.4494,1.9613,2.3105,0.0374,0.9262,2.2779,,1.8969,1.8969,,283.123,283.2783,0.9997,-7.347,-18.874,-20.8366,2.5603,0.3437,10.0269,10.615,,,,-10.2779,-13.4154,-13.3453,-12.9921,-12.4794,-11.7789,-11.1492,-9.27,13.6536,,,74.625066,-21.376006,661.39,114733.33333333333,48.6,1.13,,141.32,-6.5133,-7.3012,,,,,,,,
2008-05-18,952.6278,-12.6692,62.6293,70.7513,0.9506,1.5756,151.2164,0.5814,-1.0583,2.7698,,2.2657,2.2657,,281.7851,282.1648,0.9967,-8.0826,-11.927,-13.8267,2.5551,0.3432,10.0538,10.608,,,,-9.8807,-13.3376,-13.3087,-12.9722,-12.4692,-11.7741,-11.1482,-9.2767,13.6536,,,74.62507,-21.376015,662.33,114671.14166666666,48.6,1.06,,146.47,-8.2058,-7.6997,,,,,,,,
2008-05-19,952.9028,-12.6304,57.3086,64.7135,0.8725,3.1674,156.0837,1.003,-2.2617,3.1144,,2.5366,2.5366,,274.0728,274.6403,0.9942,-9.4347,-31.4965,-32.5148,2.553,0.3438,10.0489,10.6006,,,,-10.0548,-13.2503,-13.2704,-12.9511,-12.4579,-11.7701,-11.1499,-9.2837,13.6536,,,74.625066,-21.376018,661.36,114754.65,48.6,1.05,,148.01,-9.5452,-9.3861,,,,,,,,
2008-05-20,951.611,-11.4431,64.3286,71.7125,1.084,1.5952,144.2496,0.8067,-1.1206,2.8952,,2.3532,2.3532,,291.3763,291.8085,0.9965,-6.4458,-10.3442,-9.5599,2.5613,0.3435,10.0353,10.599,,,,-10.4156,-13.163,-13.2257,-12.9277,-12.4482,-11.7686,-11.1499,-9.2879,13.6536,,,74.625068,-21.375999,660.98,119417.94166666668,48.6,1.09,,146.85,-6.6516,-5.5168,,,,,,,,
2008-05-21,948.8767,-7.7181,68.6492,73.7653,1.5581,2.7903,326.5395,-1.0991,1.6631,3.0601,,2.4677,2.4677,,290.1491,290.4567,0.9968,-5.6668,-32.5499,-21.3917,2.5547,0.3454,10.0079,10.5972,,,,-10.5417,-13.0866,-13.184,-12.9063,-12.4383,-11.7631,-11.1522,-9.2956,13.6536,,,74.625068,-21.376023,659.62,114561.56666666667,48.6,1.14,,147.21,-5.3169,-5.6276,,,,,,,,
2008-05-22,946.7566,-3.837,45.0996,46.583,1.3874,2.3019,152.1066,0.9945,-1.8789,3.1833,,2.537,2.537,,316.5918,317.1938,0.9905,-2.5712,-40.3201,-10.4335,2.5651,0.3479,9.9872,10.5963,,,,-10.3368,-13.021,-13.1362,-12.8816,-12.4245,-11.7594,-11.1528,-9.2999,13.6536,,,74.625073,-21.376015,661.92,119878.49166666667,48.6,1.14,,142.9,-0.7561,0.2137,,,,,,,,
2008-05-23,943.7072,-1.655,45.4418,46.1667,1.6345,2.2002,154.1429,0.7598,-1.5677,2.8451,,2.2871,2.2871,,321.9976,322.4475,0.9936,-1.1243,-38.9327,-4.6098,2.5665,0.3492,9.9507,10.5882,,,,-9.9438,-12.9598,-13.0889,-12.8555,-12.4123,-11.7547,-11.1516,-9.3064,13.6536,,,74.625071,-21.376009,662.6,114441.07500000001,48.6,1.12,,141.28,0.5742,1.4236,,,,,,,,
2008-05-24,936.2159,-0.3644,61.478,61.8908,2.448,4.2286,166.3516,0.9119,-3.7555,2.7563,,2.1937,2.1937,,321.2595,321.6566,0.9949,-0.6957,-50.3745,5.252,2.5625,0.3513,9.8728,10.5802,,,,-9.3137,-12.8996,-13.0428,-12.8284,-12.4004,-11.7501,-11.1499,-9.311,13.6536,,,74.625071,-21.376008,663.36,114879.65416666667,48.6,1.12,,142.77,1.0725,1.2854,,,,,,,,
2008-05-25,937.9091,0.336,40.9809,41.2491,1.7266,2.9767,153.0256,1.2571,-2.47,3.3471,,2.5371,2.5371,,333.7245,334.4515,0.9918,-0.8419,-45.9945,2.8058,2.5616,0.3572,9.884,10.5756,,,,-8.6419,-12.8264,-12.9983,-12.8022,-12.3858,-11.7436,-11.1514,-9.3157,13.6536,,,74.625071,-21.376007,662.44,119125.20000000001,48.6,1.12,,140.97,3.0499,3.9029,,,,,,,,
2008-05-26,929.6417,0.5684,53.0743,53.2841,2.2815,1.4538,154.1451,0.3439,-0.7097,2.8526,,2.1672,2.1672,,338.4006,338.9191,0.9887,-0.13,-15.2532,3.1608,2.5607,0.3626,9.7965,10.5653,,,,-7.9662,-12.7431,-12.9529,-12.7748,-12.3741,-11.7391,-11.1517,-9.3223,13.6536,,,74.625067,-21.376,661.42,114877.39583333333,48.6,1.13,,137.81,4.1991,4.8872,,,,,,,,
2008-05-27,929.3566,-3.4524,73.1275,75.5426,2.3282,0.9134,157.8971,0.1004,-0.2472,3.2566,,2.4109,2.4109,,327.7881,328.3701,0.9909,-1.3433,-9.8315,-5.944,2.561,0.3695,9.7809,10.5524,,,,-7.0282,-12.6446,-12.9055,-12.7459,-12.3553,-11.7311,-11.1494,-9.3272,13.6536,,,74.625062,-21.375988,661.3,114438.80416666667,48.6,1.07,,138.07,1.6781,2.6126,,,,,,,,
2008-05-28,931.3254,0.9978,59.8879,60.2779,2.6939,1.3239,150.789,0.3637,-0.6505,3.361,,2.4473,2.4473,,343.681,344.3478,0.9926,-0.822,-6.7988,1.4788,2.5621,0.3763,9.7887,10.5418,,,,-5.9474,-12.5285,-12.8561,-12.7172,-12.3412,-11.7242,-11.1492,-9.3319,13.6536,,,74.625063,-21.376008,660.46,119437.54166666667,48.6,1.18,,137.99,4.5482,5.914,,,,,,,,
2008-05-29,931.8602,7.1823,37.4174,37.4174,2.5549,2.8761,153.0646,1.1123,-2.1891,3.4536,,2.4556,2.4556,,362.6829,363.3225,0.9842,0.0,-19.8591,30.7167,2.5748,0.4184,9.7745,10.5226,,,,-1.9683,-12.3766,-12.8014,-12.6871,-12.3255,-11.7162,-11.1456,-9.3375,13.6536,,,74.625069,-21.376009,661.76,119316.10833333334,48.6,1.04,,138.34,8.1143,9.7931,,,,,,,,
2008-05-30,927.3086,7.5543,45.3702,45.3702,3.188,3.4754,154.9167,1.2274,-2.6222,3.4171,,2.3586,2.3586,,359.3359,359.8461,0.9841,0.0,-13.4602,43.4051,2.6025,0.4732,9.6859,10.4765,,,,-0.0848,-11.9283,-12.7411,-12.6525,-12.3032,-11.7036,-11.1403,-9.3418,13.6536,,,74.625067,-21.376005,662.58,119148.31666666668,48.6,1.1,,138.18,7.8611,9.1532,,,,,,,,
2008-05-31,926.8126,1.4623,79.5013,79.6681,3.6705,0.8332,151.4338,0.1753,-0.3219,1.2766,,0.9569,0.9569,,331.693,331.6259,0.997,-0.064,-0.8902,1.0314,2.6124,0.5134,9.6558,10.4511,,,,-0.0766,-9.9304,-12.6422,-12.6178,-12.2829,-11.6933,-11.1348,-9.3493,13.6536,,,74.625068,-21.376001,661.99,114562.52500000001,48.6,1.07,,136.48,3.2407,3.4078,,,,,,,,
2008-06-01,925.9657,0.6568,76.7097,77.0952,3.349,1.6946,72.8663,0.3266,0.1007,2.9924,,2.105,2.105,,335.2181,335.5638,0.9981,-0.1598,-12.9565,10.4221,2.6105,0.5351,9.63,10.4331,,,,-0.0587,-7.7159,-12.4003,-12.5841,-12.2634,-11.6808,-11.1327,-9.3551,13.6536,,,74.625068,-21.375991,663.06,119961.78333333334,48.6,1.09,,139.21,4.1367,4.1873,,,,,,,,
2008-06-02,936.3066,3.1545,48.0173,48.0173,2.4569,2.0837,149.2648,0.9166,-1.5416,3.4367,,2.3166,2.3166,,352.5055,353.2681,0.9881,0.0,-20.1433,11.5214,2.6089,0.5735,9.6643,10.3709,,,,-0.0367,-6.9784,-11.9999,-12.5286,-12.2406,-11.6709,-11.1257,-9.3582,13.6536,,,74.625066,-21.376,661.84,118832.44583333333,48.6,1.07,,138.11,6.684,7.7656,,,,,,,,